Time,TemperatureF,DewpointF,PressureIn,WindDirection,WindDirectionDegrees,WindSpeedMPH,WindSpeedGustMPH,Humidity,HourlyPrecipIn,Conditions,Clouds,dailyrainin,SoftwareType,DateUTC
2013-04-24 00:03:00,44.0,38.0,30.05,North,11,1.0,5.0,79,0.00,,,0.00,,2013-04-24 04:03:00,
2013-04-24 00:12:00,44.0,38.0,30.05,North,11,1.0,5.0,79,0.00,,,0.00,,2013-04-24 04:12:00,
2013-04-24 00:23:00,44.0,38.0,30.06,North,7,0.0,6.0,80,0.00,,,0.00,,2013-04-24 04:23:00,
2013-04-24 00:33:00,44.0,38.0,30.06,North,1,2.0,7.0,79,0.00,,,0.00,,2013-04-24 04:33:00,
2013-04-24 00:43:00,44.0,38.0,30.06,North,1,2.0,7.0,79,0.00,,,0.00,,2013-04-24 04:43:00,
2013-04-24 00:52:00,44.0,38.0,30.05,North,1,1.0,3.0,80,0.00,,,0.00,,2013-04-24 04:52:00,
2013-04-24 01:02:00,44.0,38.0,30.04,North,1,1.0,5.0,80,0.00,,,0.00,,2013-04-24 05:02:00,
2013-04-24 01:12:00,44.0,38.0,30.04,North,1,1.0,5.0,80,0.00,,,0.00,,2013-04-24 05:12:00,
2013-04-24 01:22:00,44.0,38.0,30.03,North,1,2.0,6.0,80,0.00,,,0.00,,2013-04-24 05:22:00,
2013-04-24 01:32:00,44.0,38.0,30.02,North,0,1.0,6.0,80,0.00,,,0.00,,2013-04-24 05:32:00,
2013-04-24 01:42:00,44.0,38.0,30.02,North,0,1.0,6.0,80,0.00,,,0.00,,2013-04-24 05:42:00,
2013-04-24 01:52:00,43.0,38.0,30.01,North,0,1.0,3.0,81,0.00,,,0.00,,2013-04-24 05:52:00,
2013-04-24 02:02:00,43.0,38.0,30.01,North,0,1.0,6.0,81,0.00,,,0.00,,2013-04-24 06:02:00,
2013-04-24 02:12:00,43.0,38.0,30.01,North,0,1.0,6.0,81,0.00,,,0.00,,2013-04-24 06:12:00,
2013-04-24 02:21:00,43.0,38.0,30.00,North,0,1.0,5.0,82,0.00,,,0.00,,2013-04-24 06:21:00,
2013-04-24 02:33:00,43.0,38.0,29.99,North,0,1.0,3.0,82,0.00,,,0.00,,2013-04-24 06:33:00,
2013-04-24 02:42:00,43.0,38.0,29.99,North,0,1.0,3.0,82,0.00,,,0.00,,2013-04-24 06:42:00,
2013-04-24 02:51:00,43.0,38.0,30.00,North,0,1.0,6.0,83,0.00,,,0.00,,2013-04-24 06:51:00,
2013-04-24 03:02:00,43.0,38.0,30.00,North,0,0.0,2.0,83,0.00,,,0.00,,2013-04-24 07:02:00,
2013-04-24 03:11:00,43.0,38.0,30.00,North,0,0.0,2.0,83,0.00,,,0.00,,2013-04-24 07:11:00,
2013-04-24 03:22:00,43.0,38.0,30.00,North,0,1.0,5.0,84,0.00,,,0.00,,2013-04-24 07:22:00,
2013-04-24 03:32:00,42.0,38.0,29.99,North,0,0.0,3.0,84,0.00,,,0.00,,2013-04-24 07:32:00,
2013-04-24 03:42:00,42.0,38.0,29.99,North,0,0.0,3.0,84,0.00,,,0.00,,2013-04-24 07:42:00,
2013-04-24 03:52:00,42.0,38.0,29.99,North,1,1.0,3.0,84,0.00,,,0.00,,2013-04-24 07:52:00,
2013-04-24 04:02:00,42.0,38.0,29.99,North,1,2.0,7.0,84,0.00,,,0.00,,2013-04-24 08:02:00,
2013-04-24 04:12:00,42.0,38.0,29.99,North,1,2.0,7.0,84,0.00,,,0.00,,2013-04-24 08:12:00,
2013-04-24 04:21:00,42.0,38.0,29.98,North,2,0.0,6.0,84,0.00,,,0.00,,2013-04-24 08:21:00,
2013-04-24 04:33:00,42.0,38.0,29.98,North,1,1.0,6.0,84,0.00,,,0.00,,2013-04-24 08:33:00,
2013-04-24 04:42:00,42.0,38.0,29.98,North,1,1.0,6.0,84,0.00,,,0.00,,2013-04-24 08:42:00,
2013-04-24 04:52:00,42.0,38.0,29.98,North,1,0.0,3.0,85,0.00,,,0.00,,2013-04-24 08:52:00,
2013-04-24 05:02:00,42.0,38.0,29.99,North,1,0.0,2.0,86,0.00,,,0.00,,2013-04-24 09:02:00,
2013-04-24 05:11:00,42.0,38.0,29.99,North,1,0.0,2.0,86,0.00,,,0.00,,2013-04-24 09:11:00,
2013-04-24 05:21:00,42.0,38.0,29.99,North,1,1.0,3.0,86,0.00,,,0.00,,2013-04-24 09:21:00,
2013-04-24 05:33:00,42.0,38.0,29.99,North,1,0.0,2.0,87,0.00,,,0.00,,2013-04-24 09:33:00,
2013-04-24 05:42:00,42.0,38.0,29.99,North,1,0.0,2.0,87,0.00,,,0.00,,2013-04-24 09:42:00,
2013-04-24 05:53:00,42.0,38.0,29.99,North,1,0.0,2.0,87,0.00,,,0.00,,2013-04-24 09:53:00,
2013-04-24 06:02:00,42.0,38.0,30.00,North,1,0.0,1.0,87,0.00,,,0.00,,2013-04-24 10:02:00,
2013-04-24 06:12:00,42.0,38.0,30.00,North,1,0.0,1.0,87,0.00,,,0.00,,2013-04-24 10:12:00,
2013-04-24 06:22:00,41.0,37.0,30.00,North,1,0.0,1.0,87,0.00,,,0.00,,2013-04-24 10:22:00,
2013-04-24 06:32:00,41.0,38.0,30.01,North,1,0.0,0.0,88,0.00,,,0.00,,2013-04-24 10:32:00,
2013-04-24 06:42:00,41.0,38.0,30.01,North,1,0.0,0.0,88,0.00,,,0.00,,2013-04-24 10:42:00,
2013-04-24 06:52:00,42.0,39.0,30.01,North,1,0.0,2.0,88,0.00,,,0.00,,2013-04-24 10:52:00,
2013-04-24 07:02:00,43.0,39.0,30.02,North,1,0.0,3.0,86,0.00,,,0.00,,2013-04-24 11:02:00,
2013-04-24 07:11:00,43.0,39.0,30.02,North,1,0.0,3.0,86,0.00,,,0.00,,2013-04-24 11:11:00,
2013-04-24 07:21:00,44.0,39.0,30.01,North,1,0.0,3.0,84,0.00,,,0.00,,2013-04-24 11:21:00,
2013-04-24 07:32:00,45.0,39.0,30.01,North,1,0.0,3.0,80,0.00,,,0.00,,2013-04-24 11:32:00,
2013-04-24 07:42:00,45.0,39.0,30.01,North,1,0.0,3.0,80,0.00,,,0.00,,2013-04-24 11:42:00,
2013-04-24 07:52:00,46.0,39.0,30.01,North,1,1.0,3.0,76,0.00,,,0.00,,2013-04-24 11:52:00,
2013-04-24 08:02:00,47.0,39.0,30.01,North,1,0.0,3.0,75,0.00,,,0.00,,2013-04-24 12:02:00,
2013-04-24 08:11:00,48.0,40.0,30.02,North,1,0.0,3.0,73,0.00,,,0.00,,2013-04-24 12:11:00,
2013-04-24 08:22:00,48.0,40.0,30.02,North,1,0.0,3.0,73,0.00,,,0.00,,2013-04-24 12:22:00,
2013-04-24 08:32:00,49.0,39.0,30.01,North,1,0.0,3.0,69,0.00,,,0.00,,2013-04-24 12:32:00,
2013-04-24 08:42:00,49.0,39.0,30.01,North,1,0.0,3.0,69,0.00,,,0.00,,2013-04-24 12:42:00,
2013-04-24 08:51:00,50.0,39.0,30.00,North,1,0.0,2.0,67,0.00,,,0.00,,2013-04-24 12:51:00,
2013-04-24 09:01:00,51.0,40.0,30.00,North,1,0.0,0.0,65,0.00,,,0.00,,2013-04-24 13:01:00,
2013-04-24 09:12:00,51.0,40.0,30.00,North,1,0.0,0.0,65,0.00,,,0.00,,2013-04-24 13:12:00,
2013-04-24 09:22:00,51.0,40.0,29.99,North,0,0.0,0.0,65,0.00,,,0.00,,2013-04-24 13:22:00,
2013-04-24 09:32:00,51.0,40.0,29.99,North,7,0.0,0.0,65,0.00,,,0.00,,2013-04-24 13:32:00,
2013-04-24 09:41:00,51.0,40.0,29.99,North,7,0.0,0.0,65,0.00,,,0.00,,2013-04-24 13:41:00,
2013-04-24 09:52:00,51.0,40.0,29.99,North,0,0.0,0.0,65,0.00,,,0.00,,2013-04-24 13:52:00,
2013-04-24 10:01:00,51.0,40.0,29.99,North,0,0.0,0.0,65,0.00,,,0.00,,2013-04-24 14:01:00,
2013-04-24 10:11:00,51.0,40.0,29.99,North,0,0.0,0.0,65,0.00,,,0.00,,2013-04-24 14:11:00,
2013-04-24 10:21:00,51.0,40.0,29.98,North,0,0.0,0.0,65,0.00,,,0.00,,2013-04-24 14:21:00,
2013-04-24 10:32:00,51.0,40.0,29.98,North,0,0.0,0.0,65,0.00,,,0.00,,2013-04-24 14:32:00,
2013-04-24 10:41:00,51.0,40.0,29.98,North,0,0.0,0.0,65,0.00,,,0.00,,2013-04-24 14:41:00,
2013-04-24 10:51:00,58.0,41.0,29.98,WNW,287,2.0,6.0,54,0.00,,,0.00,,2013-04-24 14:51:00,
2013-04-24 11:01:00,59.0,42.0,29.98,West,275,2.0,7.0,53,0.00,,,0.00,,2013-04-24 15:01:00,
2013-04-24 11:11:00,59.0,42.0,29.98,West,275,2.0,7.0,53,0.00,,,0.00,,2013-04-24 15:11:00,
2013-04-24 11:22:00,59.0,42.0,29.97,WSW,256,3.0,12.0,53,0.00,,,0.00,,2013-04-24 15:22:00,
2013-04-24 11:33:00,59.0,42.0,29.97,South,176,2.0,14.0,53,0.00,,,0.00,,2013-04-24 15:33:00,
2013-04-24 11:43:00,59.0,42.0,29.97,South,176,2.0,14.0,53,0.00,,,0.00,,2013-04-24 15:43:00,
2013-04-24 11:53:00,59.0,42.0,29.96,SSW,206,3.0,7.0,54,0.00,,,0.00,,2013-04-24 15:53:00,
2013-04-24 12:03:00,60.0,43.0,29.96,SSW,206,2.0,10.0,53,0.00,,,0.00,,2013-04-24 16:03:00,
2013-04-24 12:12:00,60.0,43.0,29.96,SSW,206,2.0,10.0,53,0.00,,,0.00,,2013-04-24 16:12:00,
2013-04-24 12:23:00,60.0,43.0,29.95,SW,215,3.0,8.0,53,0.00,,,0.00,,2013-04-24 16:23:00,
2013-04-24 12:32:00,61.0,43.0,29.93,SSW,200,4.0,10.0,51,0.00,,,0.00,,2013-04-24 16:32:00,
2013-04-24 12:42:00,61.0,44.0,29.93,SSW,206,6.0,12.0,53,0.00,,,0.00,,2013-04-24 16:42:00,
2013-04-24 12:52:00,61.0,44.0,29.93,SSW,206,6.0,12.0,53,0.00,,,0.00,,2013-04-24 16:52:00,
2013-04-24 13:02:00,60.0,43.0,29.92,South,189,3.0,8.0,54,0.00,,,0.00,,2013-04-24 17:02:00,
2013-04-24 13:12:00,60.0,43.0,29.92,South,189,3.0,8.0,54,0.00,,,0.00,,2013-04-24 17:12:00,
2013-04-24 13:22:00,60.0,43.0,29.91,SSW,201,5.0,10.0,53,0.00,,,0.00,,2013-04-24 17:22:00,
2013-04-24 13:32:00,59.0,43.0,29.91,South,174,7.0,12.0,56,0.00,,,0.00,,2013-04-24 17:32:00,
2013-04-24 13:42:00,59.0,43.0,29.91,South,174,7.0,12.0,56,0.00,,,0.00,,2013-04-24 17:42:00,
2013-04-24 13:51:00,59.0,44.0,29.91,South,189,5.0,13.0,57,0.00,,,0.00,,2013-04-24 17:51:00,
2013-04-24 14:02:00,58.0,44.0,29.90,SSE,167,9.0,17.0,60,0.00,,,0.00,,2013-04-24 18:02:00,
2013-04-24 14:12:00,58.0,44.0,29.90,SSE,167,9.0,17.0,60,0.00,,,0.00,,2013-04-24 18:12:00,
2013-04-24 14:22:00,58.0,45.0,29.90,South,175,6.0,12.0,61,0.00,,,0.00,,2013-04-24 18:22:00,
2013-04-24 14:33:00,57.0,45.0,29.90,SSW,200,9.0,14.0,63,0.00,,,0.00,,2013-04-24 18:33:00,
2013-04-24 14:42:00,57.0,45.0,29.90,SSW,200,9.0,14.0,63,0.00,,,0.00,,2013-04-24 18:42:00,
2013-04-24 14:52:00,58.0,45.0,29.90,South,174,7.0,16.0,63,0.00,,,0.00,,2013-04-24 18:52:00,
2013-04-24 15:02:00,58.0,45.0,29.89,SSW,195,6.0,12.0,63,0.00,,,0.00,,2013-04-24 19:02:00,
2013-04-24 15:11:00,58.0,45.0,29.89,SSW,195,6.0,12.0,63,0.00,,,0.00,,2013-04-24 19:11:00,
2013-04-24 15:22:00,59.0,47.0,29.88,South,174,7.0,13.0,64,0.00,,,0.00,,2013-04-24 19:22:00,
2013-04-24 15:32:00,58.0,47.0,29.86,SSW,194,5.0,13.0,66,0.00,,,0.00,,2013-04-24 19:32:00,
2013-04-24 15:42:00,58.0,47.0,29.86,SSW,194,5.0,13.0,66,0.00,,,0.00,,2013-04-24 19:42:00,
2013-04-24 15:52:00,58.0,47.0,29.85,SSE,167,7.0,12.0,66,0.00,,,0.00,,2013-04-24 19:52:00,
2013-04-24 16:02:00,58.0,47.0,29.85,SSW,194,7.0,12.0,67,0.00,,,0.00,,2013-04-24 20:02:00,
2013-04-24 16:11:00,58.0,47.0,29.85,SSW,194,7.0,12.0,67,0.00,,,0.00,,2013-04-24 20:11:00,
2013-04-24 16:22:00,57.0,47.0,29.85,South,176,6.0,14.0,68,0.00,,,0.00,,2013-04-24 20:22:00,
2013-04-24 16:32:00,56.0,46.0,29.85,SSE,160,6.0,12.0,69,0.00,,,0.00,,2013-04-24 20:32:00,
2013-04-24 16:42:00,56.0,46.0,29.85,SSE,160,6.0,12.0,69,0.00,,,0.00,,2013-04-24 20:42:00,
2013-04-24 16:52:00,54.0,46.0,29.85,South,182,9.0,17.0,74,0.00,,,0.00,,2013-04-24 20:52:00,
2013-04-24 17:02:00,53.0,47.0,29.85,SSE,162,7.0,17.0,79,0.00,,,0.00,,2013-04-24 21:02:00,
2013-04-24 17:11:00,53.0,47.0,29.85,SSE,162,7.0,17.0,79,0.00,,,0.00,,2013-04-24 21:11:00,
2013-04-24 17:22:00,52.0,47.0,29.86,South,181,8.0,14.0,82,0.00,,,0.00,,2013-04-24 21:22:00,
2013-04-24 17:33:00,51.0,46.0,29.85,South,186,7.0,12.0,84,0.00,,,0.00,,2013-04-24 21:33:00,
2013-04-24 17:42:00,51.0,46.0,29.85,South,186,7.0,12.0,84,0.00,,,0.00,,2013-04-24 21:42:00,
2013-04-24 17:53:00,50.0,46.0,29.85,South,190,7.0,12.0,86,0.00,,,0.00,,2013-04-24 21:53:00,
2013-04-24 18:03:00,50.0,47.0,29.85,South,171,6.0,13.0,88,0.00,,,0.00,,2013-04-24 22:03:00,
2013-04-24 18:12:00,50.0,47.0,29.85,South,171,6.0,13.0,88,0.00,,,0.00,,2013-04-24 22:12:00,
2013-04-24 18:22:00,49.0,46.0,29.84,SSE,152,8.0,18.0,90,0.00,,,0.00,,2013-04-24 22:22:00,
2013-04-24 18:33:00,49.0,47.0,29.83,South,173,8.0,12.0,92,0.00,,,0.00,,2013-04-24 22:33:00,
2013-04-24 18:42:00,49.0,47.0,29.83,South,173,8.0,12.0,92,0.00,,,0.00,,2013-04-24 22:42:00,
2013-04-24 18:52:00,49.0,47.0,29.83,South,169,3.0,18.0,93,0.00,,,0.00,,2013-04-24 22:52:00,
2013-04-24 19:02:00,49.0,47.0,29.81,South,179,7.0,17.0,93,0.00,,,0.00,,2013-04-24 23:02:00,
2013-04-24 19:12:00,49.0,47.0,29.81,South,179,7.0,17.0,93,0.00,,,0.00,,2013-04-24 23:12:00,
2013-04-24 19:21:00,49.0,47.0,29.82,South,176,6.0,14.0,94,0.00,,,0.00,,2013-04-24 23:21:00,
2013-04-24 19:32:00,49.0,47.0,29.82,SSW,194,5.0,12.0,94,0.00,,,0.00,,2013-04-24 23:32:00,
2013-04-24 19:42:00,49.0,47.0,29.82,SSW,194,5.0,12.0,94,0.00,,,0.00,,2013-04-24 23:42:00,
2013-04-24 19:51:00,49.0,47.0,29.82,SSW,197,7.0,17.0,93,0.00,,,0.00,,2013-04-24 23:51:00,
2013-04-24 20:02:00,49.0,47.0,29.81,SSW,205,10.0,18.0,94,0.00,,,0.00,,2013-04-25 00:02:00,
2013-04-24 20:12:00,49.0,47.0,29.81,SSW,205,10.0,18.0,94,0.00,,,0.00,,2013-04-25 00:12:00,
2013-04-24 20:22:00,49.0,47.0,29.83,SW,216,10.0,16.0,94,0.00,,,0.00,,2013-04-25 00:22:00,
2013-04-24 20:32:00,49.0,48.0,29.85,SSW,209,5.0,14.0,96,0.00,,,0.00,,2013-04-25 00:32:00,
2013-04-24 20:42:00,49.0,48.0,29.85,SSW,209,5.0,14.0,96,0.00,,,0.00,,2013-04-25 00:42:00,
2013-04-24 20:52:00,49.0,48.0,29.85,South,188,7.0,18.0,97,0.00,,,0.00,,2013-04-25 00:52:00,
2013-04-24 21:01:00,49.0,48.0,29.86,SSW,206,7.0,14.0,97,0.00,,,0.00,,2013-04-25 01:01:00,
2013-04-24 21:11:00,49.0,48.0,29.86,SSW,206,7.0,14.0,97,0.00,,,0.00,,2013-04-25 01:11:00,
2013-04-24 21:23:00,49.0,48.0,29.86,South,180,7.0,13.0,98,0.00,,,0.00,,2013-04-25 01:23:00,
2013-04-24 21:32:00,49.0,48.0,29.85,South,185,7.0,14.0,98,0.00,,,0.00,,2013-04-25 01:32:00,
2013-04-24 21:42:00,49.0,48.0,29.85,South,185,7.0,14.0,98,0.00,,,0.00,,2013-04-25 01:42:00,
2013-04-24 21:52:00,50.0,50.0,29.86,South,183,6.0,13.0,99,0.00,,,0.00,,2013-04-25 01:52:00,
2013-04-24 22:02:00,50.0,50.0,29.86,South,178,3.0,13.0,99,0.00,,,0.00,,2013-04-25 02:02:00,
2013-04-24 22:11:00,50.0,50.0,29.86,South,178,3.0,13.0,99,0.00,,,0.00,,2013-04-25 02:11:00,
2013-04-24 22:22:00,50.0,50.0,29.85,SSW,195,6.0,12.0,99,0.00,,,0.00,,2013-04-25 02:22:00,
2013-04-24 22:32:00,50.0,49.0,29.85,South,181,4.0,12.0,98,0.00,,,0.00,,2013-04-25 02:32:00,
2013-04-24 22:42:00,50.0,49.0,29.85,South,181,4.0,12.0,98,0.00,,,0.00,,2013-04-25 02:42:00,
2013-04-24 22:51:00,50.0,49.0,29.85,South,181,4.0,12.0,98,0.00,,,0.00,,2013-04-25 02:51:00,
2013-04-24 23:02:00,50.0,49.0,29.85,South,189,4.0,10.0,98,0.00,,,0.00,,2013-04-25 03:02:00,
2013-04-24 23:11:00,50.0,49.0,29.85,SSW,193,5.0,10.0,98,0.00,,,0.00,,2013-04-25 03:11:00,
2013-04-24 23:22:00,50.0,49.0,29.85,SSW,193,5.0,10.0,98,0.00,,,0.00,,2013-04-25 03:22:00,
2013-04-24 23:33:00,51.0,50.0,29.85,South,189,3.0,13.0,95,0.00,,,0.00,,2013-04-25 03:33:00,
2013-04-24 23:42:00,51.0,50.0,29.85,South,189,3.0,13.0,95,0.00,,,0.00,,2013-04-25 03:42:00,
2013-04-24 23:52:00,51.0,49.0,29.84,South,178,5.0,12.0,94,0.00,,,0.00,,2013-04-25 03:52:00,